Location: Belloy
(55.7522°N, 118.2333°W)
Time: 07:09:42
(UTC+00:00)

Envisat - Visible Passes

Search period start: 30 November 2021 00:00
Search period end: 10 December 2021 00:00
Orbit: 764 x 766 km, 98.2° (Epoch: 29 November)

Date Brightness Start Highest point End Pass type
(mag) Time Alt. Az. Time Alt. Az. Time Alt. Az.
30 Nov 5.4 01:01:01 10° SSW 01:05:12 25° W 01:09:26 10° NW visible
30 Nov 5.9 11:23:24 10° NE 11:25:49 13° E 11:28:14 10° ESE visible
30 Nov 3.3 13:00:44 10° NNE 13:05:50 68° ESE 13:10:54 10° S visible
30 Nov 3.9 14:40:17 10° N 14:44:30 27° WNW 14:48:42 10° WSW visible
01 Dec 4.3 00:23:08 10° S 00:28:02 46° W 00:32:57 10° NNW visible
01 Dec 4.4 12:24:03 10° NNE 12:28:46 37° E 12:33:28 10° SSE visible
01 Dec 3.2 14:03:04 10° N 14:07:56 45° WNW 14:12:44 10° SW visible
02 Dec 5.9 01:27:37 10° SW 01:30:51 17° W 01:34:07 10° NW visible
02 Dec 5.4 11:47:45 10° NE 11:51:32 20° E 11:55:16 10° SE visible
02 Dec 2.9 13:26:03 10° NNE 13:31:11 80° WNW 13:36:15 10° SSW visible
02 Dec 4.3 15:05:58 10° N 15:09:31 19° NW 15:13:03 10° W visible
03 Dec 5.1 00:49:04 10° SSW 00:53:32 30° W 00:58:02 10° NNW visible
03 Dec 6.1 11:12:50 10° ENE 11:14:04 11° E 11:15:17 10° E visible
03 Dec 3.6 12:49:13 10° NNE 12:54:14 56° E 12:59:14 10° S visible
03 Dec 3.7 14:28:36 10° N 14:33:03 31° WNW 14:37:29 10° WSW visible
04 Dec 3.9 00:11:25 10° S 00:16:25 56° W 00:21:26 10° NNW visible
04 Dec 6.3 01:55:32 10° W 01:56:36 11° W 01:57:41 10° WNW visible
04 Dec 4.7 12:12:36 10° NNE 12:17:07 31° E 12:21:36 10° SSE visible
04 Dec 3.1 13:51:27 10° N 13:56:25 54° WNW 14:01:21 10° SW visible
05 Dec 5.7 01:15:25 10° SW 01:19:09 20° W 01:22:53 10° NW visible
05 Dec 5.6 11:36:30 10° NE 11:39:49 17° E 11:43:05 10° SE visible
05 Dec 3.0 13:14:28 10° NNE 13:19:36 86° ESE 13:24:43 10° SSW visible
05 Dec 4.1 14:54:14 10° N 14:58:06 22° NW 15:01:57 10° WSW visible
06 Dec 4.7 00:37:12 10° SSW 00:41:53 36° W 00:46:35 10° NNW visible
06 Dec 3.9 12:37:42 10° NNE 12:42:38 47° E 12:47:31 10° S visible
06 Dec 3.5 14:16:56 10° N 14:21:35 36° WNW 14:26:12 10° SW visible
06 Dec 3.5 23:59:45 10° S 00:04:49 67° WSW 00:09:55 10° NNW visible
07 Dec 6.0 01:42:29 10° WSW 01:44:51 13° W 01:47:12 10° NW visible
07 Dec 5.0 12:01:12 10° NE 12:05:27 26° E 12:09:40 10° SSE visible
07 Dec 2.9 13:39:51 10° N 13:44:54 64° WNW 13:49:55 10° SSW visible
07 Dec 4.5 15:20:01 10° N 15:23:04 16° NW 15:26:05 10° W visible
08 Dec 5.5 01:03:20 10° SW 01:07:26 24° W 01:11:34 10° NW visible
08 Dec 5.8 11:25:25 10° NE 11:28:04 14° E 11:30:43 10° ESE visible
08 Dec 3.2 13:02:55 10° NNE 13:08:02 72° ESE 13:13:07 10° S visible
08 Dec 3.9 14:42:31 10° N 14:46:40 26° NW 14:50:47 10° WSW visible
09 Dec 4.4 00:25:24 10° S 00:30:14 44° W 00:35:07 10° NNW visible
09 Dec 4.3 12:26:13 10° NNE 12:30:59 39° E 12:35:44 10° SSE visible
09 Dec 3.3 14:05:18 10° N 14:10:06 43° WNW 14:14:52 10° SW visible
